EHI
0 0 0 0 0 0 0 0 0 0 0 0 0 0 0 0 0 0 0 0 0 0 0 0 0 0 0 0 0 0 0 0 0 0 0 0 0 0
0 0 0 0 0 0 0 0 0 0 0 0 0 0 0 0 0 0 0 0 0 0 0 0 0 0 0 0 0 0 0 0 0 0 0 0 0 0
0 0 0 0 0 0 0 0 0 0 0 0 0 0 0 0 0 0 0 0 0 0 0 0 0 0 0 0 0 0 0 0 0 0 0 0 0 0
0 0 0 0 0 0 0 0 0 0 0 0 0 0 0 0 0 0 0 0 0 0 0 0 0 0 0 0 0 0 0 0 0 0 0 0 0 0
0 0 0 0 0 0 0 0 0 0 0 0 0 0 0 0 0 0 0 0 0 0 0 0 0 0 0 0 0 0 0 0 0 0 0 0 0 0
0 0 0 0 0 0 0 0 0 0 0 0 0 0 0 0 0 0 0 0 0 0 0 0 0 0 0 0 0 0 0 0 0 0 0 0 0 0
0 0 0 0 0 0 0 0 0 0 0 0 0 0 0 0 0 0 0 0 0 0 0 0 0 0 0 0 0 0 0 0 0 0 0 0 0 0
0 0 0 0 0 0 0 0 0 0 0 0 0 0 0 0 0 0 0 0 0 0 0 0 0 0 0 0 0 0 0 0 0 0 0 0 0 0
0 0 0 0 0 0 0 0 0 0 0 0 0 0 0 0 0 0 0 0 0 0 0 0 0 0 0 0 0 0 0 0 0 0 0 0 0 0
0 0 0 0 0 0 0 0 0 0 0 0 0 0 0 0 0 0 0 0 0 0 0 0 0 0 0 0 0 0 0 0 0 0 0 0 0 0
0 0 0 0 0 0 0 0 0 0 0 0 0 0 0 0 0 0 0 0 0 0 0 0 0 0 0 0 0 0 0 0 0 0 0 0 0 0
0 0 0 0 0 0 0 0 0 0 0 0 0 0 0 0 0 0 0 0 0 0 0 0 0 0 0 0 0 0 0 0 0 0 0 0 0 0
0 0 0 0 0 0 0 0 0 0 0 0 0 0 0 0 0 0 0 0 0 0 0 0 0 0 0 0 0 0 0 0 0 0 0 0 0 0
0 0 0 0 0 0 0 0 0 0 0 0 0 0 0 0 0 0 0 0 0 0 0 0 0 0 0 0 0 0 0 0 0 0 0 0 0 0
0 0 0 0 0 0 0 0 0 0 0 0 0 0 0 0 0 0 0 0 0 0 0 0 0 0 0 0 0 0 0 0 0 0 0 0 0 0
0 0 0 0 0 0 0 0 0 0 0 0 0 0 0 0 0 0 0 0 0 0 0 0 0 0 0 0 0 0 0 0 0 0 0 0 0 0
0 0 0 0 0 0 0 0 0 0 0 0 0 0 0 0 0 0 0 0 0 0 0 0 0 0 0 0 0 0 0 0 0 0 0 0 0 0
0 0 0 0 0 0 0 0 0 0 0 0 0 0 0 0 0 0 0 0 0 0 0 0 0 0 0 0 0 0 0 0 0 0 0 0 0 0
0 0 0 0 0 0 0 0 0 0 0 0 0 0 0 0 0 0 0 0 0 0 0 0 0 0 0 0 0 0 0 0 0 0 0 0 0 0
0 0 0 0 0 0 0 0 0 0 0 0 0 0 0 0 0 0 0 0 0 0 0 0 0 0 0 0 0 0 0 0 0 0 0 0 0 0
0 0 0 0 0 0 0 0 0 0 0 0 0 0 0 0 0 0 0 0 0 0 0 0 0 0 0 0 0 0 0 0 0 0 0 0 0 0
0 0 0 0 0 0 0 0 0 0 0 0 0 0 0 0 0 0 0 0 0 0 0 0 0 0 0 0 0 0 0 0 0 0 0 0 0 0
0 0 0 0 0 0 0 0 0 0 0 0 0 0 0 0 0 0 0 0 0 0 0 0 0 0 0 0 0 0 0 0 0 0 0 0 0 0
Wind_Speed
2 3 2 2 2 2 2 2 3 3 4 3 2 2 2 2 5 4 4 7 9 8 8 8 8 8 8 10 10 8 7 7 6 7 8 8 8 8
2 3 3 2 2 2 2 2 3 3 5 3 3 3 3 4 6 4 4 8 8 8 8 8 8 8 8 9 8 6 6 5 6 7 7 8 8 8
3 3 3 2 2 2 2 2 3 3 5 4 3 3 3 4 4 3 3 3 4 7 7 7 7 7 8 8 7 6 5 5 6 7 7 8 9 8
4 3 3 3 3 3 3 3 3 3 4 5 4 3 4 4 3 3 3 3 3 6 7 7 7 7 7 7 7 6 5 5 6 7 7 8 9 8
4 4 4 4 4 3 4 3 3 3 3 4 4 3 3 2 2 3 3 3 3 4 6 6 6 6 6 6 6 6 5 5 6 7 7 8 8 8
4 4 4 5 5 5 4 4 3 3 3 3 3 3 3 2 1 2 3 2 3 3 3 4 5 6 6 6 6 6 6 6 6 7 7 8 8 8
3 3 4 5 6 4 3 3 3 3 2 3 3 3 2 1 2 2 3 3 3 2 2 2 2 2 3 5 6 6 6 7 7 7 7 7 7 7
3 3 4 5 6 6 6 5 4 3 3 3 3 4 4 3 2 2 2 2 3 1 1 3 2 2 3 2 6 8 7 7 7 7 7 7 7 6
3 3 3 4 5 4 5 5 5 6 5 4 5 5 4 3 2 2 2 3 3 3 2 3 2 3 3 4 8 8 8 7 7 6 7 7 6 6
4 4 4 4 4 3 2 2 3 4 5 4 4 4 3 3 3 3 2 2 3 2 1 2 2 2 3 3 6 7 7 7 7 6 7 7 6 6
3 3 3 4 6 4 2 2 3 3 4 5 4 4 4 4 3 0 0 1 2 2 1 1 1 2 3 3 3 5 6 7 7 7 7 6 6 6
2 3 5 4 5 4 2 3 3 3 1 2 2 3 2 3 4 2 2 2 2 2 1 1 1 1 3 2 2 2 3 6 7 7 7 7 6 3
2 2 3 5 4 4 3 3 4 1 1 1 1 1 1 1 2 2 2 3 3 3 2 1 2 1 2 3 3 3 3 3 3 4 6 7 7 4
2 2 2 4 3 3 2 2 2 1 0 0 1 1 1 2 2 2 2 3 3 4 4 3 3 3 2 3 4 3 2 3 3 3 3 4 4 5
2 3 3 3 3 2 1 2 1 0 1 0 1 2 2 2 2 2 2 2 2 3 3 4 3 3 3 3 4 4 4 3 2 2 2 2 2 2
1 1 2 2 1 1 1 1 0 0 0 1 1 1 1 1 1 1 2 2 2 3 2 2 2 3 3 4 3 4 3 3 2 2 3 3 2 1
1 0 0 0 0 0 0 0 0 0 1 1 1 1 1 2 2 2 1 2 2 3 3 2 2 1 2 3 3 3 3 3 3 3 2 3 2 2
2 1 1 1 1 1 1 1 1 1 1 1 1 1 2 2 2 2 2 2 2 3 3 2 2 2 2 2 3 3 3 3 3 2 2 2 2 2
1 1 2 2 2 1 1 1 1 1 1 1 1 1 2 2 2 2 2 2 3 3 3 2 2 1 2 3 3 2 2 2 2 2 2 2 2 3
1 2 2 2 2 2 2 1 1 1 1 1 1 1 2 2 2 3 3 3 3 3 3 2 2 2 3 3 3 3 3 3 2 2 2 2 2 3
2 2 2 2 2 2 1 1 1 1 1 1 1 2 2 2 2 3 3 4 3 3 3 3 4 5 3 1 1 2 2 2 2 2 2 1 2 2
2 2 2 2 2 2 2 1 1 1 1 1 2 2 2 2 3 3 3 3 3 3 3 3 3 2 1 1 2 2 2 3 3 3 2 2 1 1
2 2 2 2 2 2 2 2 2 2 2 2 2 2 2 2 3 3 3 3 3 3 3 3 3 2 1 1 1 1 2 2 2 2 2 2 1 1
Wind_Direction
215 224 229 230 224 234 231 208 217 266 276 258 260 268 287 294 294 296 292 302 311 308 303 304 304 308 317 317 312 305 305 304 309 307 312 304 295 295
216 218 229 227 225 224 233 233 229 237 262 260 262 277 289 292 291 294 289 307 309 306 305 301 302 306 312 315 315 309 308 312 311 310 310 311 305 297
226 221 235 231 231 232 239 233 234 235 259 277 272 272 269 277 289 292 286 288 292 305 305 302 303 306 309 315 318 313 314 312 312 314 313 312 306 302
226 224 234 231 235 233 238 235 237 238 244 267 273 272 265 271 280 287 295 296 284 294 300 299 300 306 308 315 318 321 322 321 318 315 313 311 305 302
222 224 233 231 236 235 242 238 239 246 239 250 268 269 274 274 297 298 295 290 294 298 298 295 300 308 314 319 322 323 320 320 315 315 316 315 312 308
228 227 231 231 234 233 238 236 235 245 249 252 261 267 270 275 279 290 306 312 313 319 312 309 309 314 319 322 322 319 315 313 313 314 313 311 308 308
239 236 238 244 248 246 249 233 223 234 245 255 259 273 267 271 266 271 291 308 311 301 304 305 310 312 309 311 318 313 311 312 311 311 311 309 308 304
245 249 246 243 249 253 261 258 242 232 232 236 253 258 263 260 266 274 287 306 305 299 318 306 304 297 298 295 309 311 310 312 312 313 309 306 303 300
237 245 252 251 249 242 252 260 260 259 248 237 242 245 252 247 244 256 262 276 269 278 294 288 291 293 291 297 307 305 306 309 314 316 314 307 303 301
235 237 245 253 244 230 221 246 257 257 260 256 246 249 253 251 232 235 248 276 281 277 250 265 281 282 301 297 297 296 303 310 312 314 316 313 309 304
248 245 247 249 246 242 211 235 264 267 276 276 281 285 287 286 279 211 262 290 290 291 248 228 273 300 299 290 295 304 307 312 313 313 313 312 310 304
252 250 256 260 256 250 207 214 242 255 268 301 301 301 293 280 282 228 210 243 274 277 244 213 237 310 310 293 293 304 305 310 311 312 312 310 307 298
248 251 253 263 269 270 249 223 246 265 222 248 280 293 301 281 266 260 233 222 235 250 235 220 239 246 252 291 303 295 291 301 309 306 305 305 303 294
237 252 255 259 267 272 261 267 282 287 142 264 276 281 298 305 298 283 270 257 248 251 247 232 236 242 252 279 286 293 298 298 299 300 300 306 306 303
228 252 262 264 265 261 285 306 305 196 172 262 271 276 284 281 294 306 303 293 291 283 270 254 247 249 250 256 270 283 300 302 297 295 302 302 292 284
254 262 289 290 311 333 326 315 301 249 230 242 269 292 311 301 291 292 298 312 312 310 302 280 260 248 260 263 258 273 283 289 305 308 308 309 311 288
179 138 96 105 82 25 1 351 297 294 284 283 287 310 314 313 309 309 297 306 294 296 312 325 321 293 267 255 261 270 281 284 284 297 308 312 309 295
165 165 192 207 216 226 236 253 263 267 271 275 278 284 295 301 304 308 304 291 288 288 292 302 319 331 324 303 257 259 271 277 291 302 291 292 301 303
163 189 204 215 224 230 234 234 249 264 266 267 279 284 289 293 293 294 298 298 293 289 293 299 306 302 294 301 306 270 258 280 298 304 288 276 280 291
174 200 213 217 219 225 234 239 245 258 260 269 282 289 288 287 286 285 286 286 289 294 300 301 292 278 258 271 288 301 294 269 267 278 288 295 290 306
196 206 215 217 219 222 228 232 227 240 252 256 264 271 277 285 286 285 287 294 293 289 289 293 290 289 278 284 289 302 320 321 281 256 264 284 311 324
206 212 216 214 213 215 221 223 226 234 238 244 254 264 270 272 279 283 285 286 285 285 291 296 302 309 296 251 263 285 315 337 351 349 317 252 228 242
212 212 217 216 211 207 208 217 222 231 238 243 253 264 272 279 281 280 282 283 289 296 301 307 317 323 308 272 267 285 315 331 345 1 0 13 37 274